This is the latest recevied weather packets stored in our database for station/object K5UTC. If no packets are shown the sender has not sent any weather packets the latest 10 day(s).
| Time | Temp. | Humidity | Pressure | Rain* | Wind** | Luminosity | Snow |
|---|---|---|---|---|---|---|---|
| 1778145628 | 13.89° C | 98% | 1011.8 hPa | 0 mm | - | 0 W/m² | - |
| 1778145325 | 13.89° C | 98% | 1011.6 hPa | 0 mm | - | 0 W/m² | - |
| 1778145021 | 13.89° C | 98% | 1011.9 hPa | 0 mm | - | 0 W/m² | - |
| 1778144717 | 13.89° C | 98% | 1011.7 hPa | 1.78 mm | - | 0 W/m² | - |
| 1778144414 | 13.89° C | 98% | 1011.7 hPa | 1.78 mm | - | 0 W/m² | - |
| 1778144111 | 13.89° C | 98% | 1011.1 hPa | 1.27 mm | - | 0 W/m² | - |
| 1778143808 | 13.89° C | 98% | 1011.4 hPa | 6.1 mm | - | 0 W/m² | - |
| 1778143505 | 13.89° C | 98% | 1011.8 hPa | 9.65 mm | - | 0 W/m² | - |
| 1778143202 | 13.89° C | 98% | 1011.2 hPa | 7.87 mm | - | 0 W/m² | - |
| 1778142898 | 14.44° C | 98% | 1011.9 hPa | 6.1 mm | - | 0 W/m² | - |
| 1778142594 | 14.44° C | 98% | 1012.3 hPa | 3.05 mm | - | 0 W/m² | - |
| 1778142291 | 14.44° C | 98% | 1012.2 hPa | 0 mm | - | 0 W/m² | - |
| 1778141987 | 14.44° C | 98% | 1011.9 hPa | 0 mm | - | 0 W/m² | - |
| 1778141683 | 14.44° C | 98% | 1011.7 hPa | 0 mm | - | 0 W/m² | - |
| 1778141381 | 14.44° C | 98% | 1011.2 hPa | 1.27 mm | - | 0 W/m² | - |
| 1778141077 | 14.44° C | 98% | 1010.8 hPa | 3.05 mm | - | 0 W/m² | - |
| 1778140772 | 14.44° C | 98% | 1011.1 hPa | 4.83 mm | - | 0 W/m² | - |
| 1778140469 | 14.44° C | 98% | 1011.1 hPa | 7.11 mm | - | 0 W/m² | - |
| 1778140165 | 14.44° C | 98% | 1011.4 hPa | 6.1 mm | - | 0 W/m² | - |
| 1778139862 | 14.44° C | 98% | 1012.1 hPa | 6.6 mm | - | 0 W/m² | - |
| 1778139560 | 14.44° C | 98% | 1012.4 hPa | 6.1 mm | - | 0 W/m² | - |
| 1778139256 | 14.44° C | 98% | 1011.7 hPa | 3.05 mm | - | 0 W/m² | - |
| 1778138953 | 14.44° C | 98% | 1012.3 hPa | 1.78 mm | - | 0 W/m² | - |
| 1778138651 | 14.44° C | 98% | 1011.4 hPa | 1.78 mm | - | 0 W/m² | - |
| 1778138348 | 14.44° C | 98% | 1011.6 hPa | 0 mm | - | 0 W/m² | - |
* Rain latest hour (hover to see other rain measurements)
** Current wind speed in m/s (hover to see current wind gust speed)